COSMOS 2251 DEB, 40233

Orbit data source: Space-Track

COSMOS 2251 DEB, 40233 is space debris in LEO originally from a launch on Wed, 16 Jun 1993 UTC launched from the Plesetsk Missile And Space Complex (PKMTR). The debris from Iridium 33, an American commercial communications satellite, has been tracked extensively since its accidental collision with the defunct Russian satellite Cosmos 2251 in 2009. This event, occurring at high speed in low Earth orbit (LEO), generated thousands of pieces of space debris, significantly increasing the risk of further collisions. The Iridium 33 debris cloud has impacted space traffic management and orbital debris mitigation strategies, making it a subject of ongoing study in space situational awareness.

Loading next visibility...
Identifier
40233, 1993-036BVN
Orbit
LEO
Country
Flag of CISCIS
Related business
Manufacturer
Unknown
Mission
Spacecraft
Bus & Motor
Unknown
Mass
Unknown
Launch date (UTC)
1993-06-16 (32 years ago)
Launch vehicle
Unknown
Launch site
Plesetsk Missile And Space Complex (PKMTR)
Object type
Payload
Rocket body
Debris
Shape & HBR
Unknown
Radar Cross Section
Small (<0.1 m²)

Expand to show TLE details & history
Last TLE update: 1 day ago

TLE from 1 day ago
0 COSMOS 2251 DEB
1 40233U 93036BVN 25258.75777064  .00004118  00000-0  90746-3 0  9991
2 40233  73.9392 271.3665 0049062   1.7963 358.3367 14.56992920578556
Epoch: 2025-09-15T18:11Z
TLE epoch observation values (Epoch: 2025-09-15T18:11:11.383Z)
Latitude
-0°
Longitude
3.61123°
Altitude
670.799 km
Speed
7.54 km/s
True Right ascension
18h 05m 27s
True Declination
0° 00' 00"
Sunlit
Object was in daylight at epoch
Visualization orbit readout
Latitude
Unknown
Longitude
Unknown
Altitude
Unknown
Speed
Unknown
Apparent Right ascension
Unknown
Apparent Declination
Unknown
Sunlit
N/A
Visualization observer readout
Local Sidereal Time
16:25:54
Azimuth
Unknown
Elevation
Unknown
Doppler factor
Unknown
Orbital elements
Apogee altitude
735.239 km
Perigee altitude
665.78 km
Semi-major axis
7,078.646 km
Eccentricity
0.00491
Inclination
73.9392°
RAAN
271.3665°
Arg. of periapsis
1.7963°
True anomaly
358.32028°
Mean anomaly
358.3367°
Eccentric anomaly
358.3285°
Mean motion
3.64433 °/min
Orbital period
98.78 mins
BSTAR
0.00090746
Loading maneuver chart data...
Computing Atmospheric mass density...

Documentation

Showing up to 5 results
|